Location: Berg
(47.2344°N, 9.5296°E)
Time: 12:25:58
(UTC+00:00)

Cosmos 1626 - Pass Details

Date: 24 January 2021
Orbit: 490 x 493 km, 82.5° (Epoch: 06 March)

Event Time Altitude Azimuth Distance (km) Brightness Sun altitude
Rises 16:42:11 0° 208° (SSW) 2,564 6.6 -5.5°
Reaches altitude 10° 16:44:24 10° 217° (SW) 1,686 5.9 -5.8°
Maximum altitude 16:47:49 36° 285° (WNW) 805 3.8 -6.4°
Drops below altitude 10° 16:51:17 10° 353° (N) 1,698 4.7 -6.9°
Sets 16:53:31 0° 2° (N) 2,585 5.5 -7.3°
